EW6890 Weather Reports


time (UTC)temp
C
wind
direction
speed
KPH
gust
KPH
rain 1hr
cm
rain 24hr
cm
rain mn
cm
humidity
%
barometer
mb
20260503200019 26 113 0.0 8.0 0.00 0.00 0.00 44 1013.1
20260503194512 26 259 1.6 4.8 0.00 0.00 0.00 46 1013.2
20260503193019 25 257 0.0 8.0 0.00 0.00 0.00 48 1013.3
20260503191504 25 4 0.0 6.4 0.00 0.00 0.00 49 1013.6
20260503190106 23 38 0.0 4.8 0.00 0.00 0.00 50 1013.7
20260503184556 23 256 0.0 6.4 0.00 0.00 0.00 53 1014.0
20260503183108 22 220 0.0 8.0 0.00 0.00 0.00 55 1014.2
20260503181617 22 71 1.6 6.4 0.00 0.00 0.00 55 1014.3
20260503180147 21 110 0.0 8.0 0.00 0.00 0.00 57 1014.4
20260503174543 21 78 0.0 3.2 0.00 0.00 0.00 58 1014.5
20260503173045 21 56 0.0 4.8 0.00 0.00 0.00 61 1014.6
20260503171537 20 51 1.6 8.0 0.00 0.00 0.00 62 1014.7
20260503100108 15 82 3.2 4.8 0.00 0.00 0.00 79 1015.0
20260503081544 14 358 0.0 1.6 0.00 0.05 0.00 88 1015.4
20260503071538 15 343 0.0 3.2 0.00 0.05 0.00 85 1015.5
20260503054539 16 119 0.0 4.8 0.00 0.05 0.05 78 1015.3
20260503053032 16 103 0.0 1.6 0.00 0.05 0.05 78 1015.3
20260503051631 16 16 1.6 8.0 0.00 0.05 0.05 78 1015.2
20260503050032 17 282 0.0 1.6 0.00 0.05 0.05 77 1015.7
20260503044538 17 57 0.0 4.8 0.00 0.05 0.05 76 1015.8
20260503043030 16 33 0.0 3.2 0.00 0.05 0.05 79 1015.5
20260503041530 16 34 0.0 1.6 0.00 0.05 0.05 80 1015.5
20260503040031 16 34 0.0 3.2 0.00 0.05 0.05 80 1015.6
20260503034529 16 41 0.0 1.6 0.00 0.05 0.05 79 1015.4
20260503033033 17 327 0.0 1.6 0.00 0.05 0.05 78 1015.3
20260503031528 17 318 0.0 1.6 0.00 0.05 0.05 76 1015.1
20260503030027 17 310 0.0 3.2 0.00 0.05 0.05 74 1015.3
20260503024527 18 70 0.0 4.8 0.00 0.05 0.05 73 1015.4
20260503023027 18 117 0.0 1.6 0.00 0.05 0.05 71 1015.5
20260503021525 19 121 0.0 3.2 0.00 0.05 0.05 69 1015.5
20260503020025 21 262 0.0 1.6 0.00 0.05 0.05 66 1015.0
20260503014524 21 262 0.0 3.2 0.00 0.05 0.05 64 1014.6
20260503013031 22 208 0.0 1.6 0.00 0.05 0.05 60 1014.4
20260503011527 22 175 0.0 0.0 0.00 0.05 0.05 61 1014.4
20260503010023 22 278 0.0 1.6 0.00 0.05 0.05 58 1014.4
20260503004522 22 233 0.0 3.2 0.00 0.05 0.05 59 1014.4
20260503003022 22 242 0.0 6.4 0.00 0.05 0.05 58 1014.4
20260503001520 23 335 0.0 3.2 0.00 0.05 0.05 57 1014.4
20260503000019 22 255 1.6 4.8 0.00 0.05 0.05 56 1014.5
20260502234514 22 278 0.0 6.4 0.00 0.05 0.05 57 1014.6
20260502233016 22 253 1.6 6.4 0.00 0.05 0.05 57 1014.8
20260502231512 21 233 0.0 6.4 0.00 0.05 0.05 60 1015.0
20260502230004 20 264 1.6 6.4 0.00 0.05 0.05 62 1015.1
20260502224501 20 257 1.6 8.0 0.00 0.05 0.05 63 1015.4
20260502223058 20 36 0.0 4.8 0.00 0.05 0.05 65 1015.6
20260502221554 19 27 0.0 6.4 0.00 0.05 0.05 66 1015.7
20260502220052 19 27 1.6 6.4 0.00 0.05 0.05 65 1016.1
20260502214605 19 260 1.6 9.7 0.00 0.05 0.05 66 1016.2
20260502213047 18 264 1.6 6.4 0.00 0.05 0.05 67 1016.4
20260502211549 18 235 0.0 8.0 0.00 0.05 0.05 69 1016.6
20260502210051 18 94 0.0 3.2 0.00 0.05 0.05 69 1016.8
20260502204541 17 196 0.0 1.6 0.00 0.05 0.05 71 1017.2
20260502203047 17 253 0.0 3.2 0.00 0.05 0.05 75 1017.3
20260502201530 16 266 0.0 4.8 0.00 0.05 0.05 77 1017.4